Location: Fontevrault
(47.1823°N, 0.0493°E)
Time: 09:45:54
(UTC+00:00)

Meteor 2-5 Rocket - Pass Details

Date: 16 June 2021
Orbit: 833 x 911 km, 81.2° (Epoch: 28 July)

Event Time Altitude Azimuth Distance (km) Brightness Sun altitude
Exits shadow 22:24:34 21° 188° (S) 1,811 4.9 -16.2°
Maximum altitude 22:28:26 88° 99° (E) 846 3.6 -16.4°
Drops below altitude 10° 22:34:04 10° 12° (NNE) 2,481 7.0 -16.8°
Sets 22:36:30 0° 12° (NNE) 3,431 7.9 -16.9°
